Ana Sayfa
METAR-TAF:

METAR-TAF

Havaalanları :

New River Valley Airport

Dublin, Virginia, Amerika Birleşik Devletleri

Enlem: 37-08N, Boylam: 080-41W, yükseklik: 642 m

Güncel hava durumu gözlemi

Rapor saat 01:35 UTC de 30 dakika önce yapıldı.
Sakin rüzgar
Sıcaklık 12°C
Nem 76%
Basınç 1020 hPa
Görüş mesafesi: 16.1 km
Açık gökyüzü

METAR: KPSK 070135Z AUTO 00000KT 10SM CLR 12/08 A3012 RMK AO2 T01190078

Saat: 22:05 (02:05 UTC)


TAF: eksik

4.000'den fazla havaalanı için hava durumu gözlemleri ve tahminleri (METAR ve TAF raporları).

Kullanılabilir istasyonlar harita üzerinde sarı ve kırmızı noktalarla gösterilir.

İstasyonun adını görmek için fareyi noktanın üzerinde gezdirin.

Sonrasında hava gözlem ve tahminlerini görmek için tıklayın.

Haritayı değiştirmek için: yaklaştırmak için siyah artı işaretli yeşil düğmeye ve uzaklaştırmak için de eksi işaretli düğmeye hızla tıklayın; bitişik haritalar için yeşil okları kullanın.


METAR-TAF: